Weather History for Middletown, PA

Change the Weather History Date:

Friday, June 21, 2013

  Actual Average Record
Temperature  
Mean Temperature 72 °F 73 °F  
Max Temperature 83 °F 83 °F 98 °F (1923)
Min Temperature 60 °F 64 °F 48 °F (1940)
Degree Days  
Heating Degree Days 0 0  
Month to date heating degree days 2 17  
Since 1 June heating degree days 2 17  
Since 1 July heating degree days 5117 5268  
Cooling Degree Days 7 8  
Month to date cooling degree days 113 128  
Year to date cooling degree days 196 193  
Since 1 June cooling degree days 113 128  
Growing Degree Days 22 (Base 50)    
Moisture  
Dew Point 56 °F    
Average Humidity 64    
Maximum Humidity 84    
Minimum Humidity 43    
Precipitation  
Precipitation 0.00 in 0.12 in 5.81 in (1972)
Month to date precipitation 3.02 2.51  
Year to date precipitation 15.18 18.04  
Sea Level Pressure  
Sea Level Pressure 30.26 in    
Wind  
Wind Speed 4 mph (SSE)    
Max Wind Speed 12 mph    
Max Gust Speed 24 mph    
Visibility 10 miles    
Events      
T = Trace of Precipitation, MM = Missing Value Source: NWS Daily Summary

Daily Weather History Graph

Daily Weather History Graph

Search for Another Location

Airport:

Trip Planner

Search our weather history database for the weather conditions in past years. The results will help you decide how hot, cold, wet, or windy it might be!

Date:

Astronomy

Jun. 21, 2013 Rise Set
Actual Time 5:37 AM EDT 8:40 PM EDT
Civil Twilight 5:04 AM EDT 9:13 PM EDT
Nautical Twilight 4:22 AM EDT 9:55 PM EDT
Astronomical Twilight 3:33 AM EDT 10:44 PM EDT
Moon 6:48 PM EDT 3:51 AM EDT
Length of Visible Light 16h 08m
Length of Day
15h 02m
Waxing Gibbous, 95% of the Moon is Illuminated
Jun 21
Waxing Gibbous
Jun 23
Full
Jun 30
Last Quarter
Jul 8
New
Jul 15
First Quarter

Hourly Weather History & Observations

Time (EDT) Temp. Heat Index Dew Point Humidity Pressure Visibility Wind Dir Wind Speed Gust Speed Precip Events Conditions
12:56 AM 68.0 °F - 55.9 °F 65% 30.26 in 10.0 mi Calm Calm - N/A   Clear
1:56 AM 66.9 °F - 55.9 °F 68% 30.27 in 10.0 mi South 4.6 mph - N/A   Clear
2:56 AM 66.0 °F - 54.0 °F 65% 30.27 in 10.0 mi Variable 3.5 mph - N/A   Clear
3:56 AM 64.0 °F - 55.0 °F 73% 30.27 in 10.0 mi Calm Calm - N/A   Clear
4:56 AM 61.0 °F - 55.0 °F 81% 30.27 in 10.0 mi Calm Calm - N/A   Clear
5:56 AM 61.0 °F - 54.0 °F 78% 30.28 in 10.0 mi Calm Calm - N/A   Clear
6:56 AM 63.0 °F - 54.0 °F 72% 30.29 in 9.0 mi Calm Calm - N/A   Clear
7:56 AM 66.0 °F - 55.0 °F 68% 30.30 in 10.0 mi SE 4.6 mph - N/A   Clear
8:56 AM 69.1 °F - 57.0 °F 65% 30.30 in 10.0 mi ESE 6.9 mph - N/A   Clear
9:56 AM 73.0 °F - 55.9 °F 55% 30.28 in 10.0 mi SSE 4.6 mph - N/A   Clear
10:56 AM 75.9 °F - 57.0 °F 52% 30.29 in 10.0 mi SSE 9.2 mph - N/A   Clear
11:56 AM 78.1 °F - 55.9 °F 46% 30.30 in 10.0 mi SSE 3.5 mph - N/A   Partly Cloudy
12:56 PM 79.0 °F - 57.0 °F 47% 30.28 in 10.0 mi Variable 3.5 mph - N/A   Scattered Clouds
1:56 PM 81.0 °F 81.3 °F 59.0 °F 47% 30.26 in 10.0 mi South 3.5 mph - N/A   Partly Cloudy
2:56 PM 82.9 °F 82.6 °F 57.9 °F 42% 30.25 in 10.0 mi SSE 5.8 mph - N/A   Partly Cloudy
3:56 PM 82.0 °F 82.1 °F 59.0 °F 45% 30.24 in 10.0 mi SSW 5.8 mph - N/A   Scattered Clouds
4:56 PM 82.0 °F 82.0 °F 57.9 °F 44% 30.23 in 10.0 mi South 4.6 mph - N/A   Scattered Clouds
5:56 PM 81.0 °F 81.6 °F 60.1 °F 49% 30.23 in 10.0 mi Variable 5.8 mph - N/A   Scattered Clouds
6:56 PM 80.1 °F 80.6 °F 57.9 °F 47% 30.22 in 10.0 mi South 8.1 mph - N/A   Scattered Clouds
7:56 PM 77.0 °F - 55.9 °F 48% 30.22 in 10.0 mi South 5.8 mph - N/A   Mostly Cloudy
8:56 PM 73.9 °F - 55.0 °F 52% 30.22 in 10.0 mi South 6.9 mph - N/A   Mostly Cloudy
9:56 PM 73.0 °F - 54.0 °F 51% 30.24 in 10.0 mi SSE 5.8 mph - N/A   Mostly Cloudy
10:56 PM 71.1 °F - 54.0 °F 55% 30.24 in 10.0 mi South 4.6 mph - N/A   Mostly Cloudy
11:56 PM 64.9 °F - 55.9 °F 73% 30.25 in 10.0 mi Calm Calm - N/A   Mostly Cloudy